Content
SEND FEEDBACK

Daily
Averages
Monthly
Summary
United States of America

INDEPENDENCE, IOWA


Home > North America > United States > Iowa
Elevation: 920 feet     Latitude: 42 28N     Longitude: 091 54W

WEATHER
 
SELECT A DAY
Number of Records: 201,399;   Date Range: 8/16/02 - 7/7/14
 
SHARE

PRINT THIS DATA

[ ← Previous Day ]
WEATHER ALMANAC - FEBRUARY 1, 2013
[ Next Day → ]
[ °C ]   °F
Weather ElementAverageHighLow
Temperature2.1 °F14 °F (10:55 pm)-7.6 °F (4:55 am)
Dewpoint-5.2 °F10.4 °F (10:55 pm)-14.8 °F (6:15 am)
Humidity72 %86 % (10:55 pm)56 % (11:35 am)
Barometer30.23 in30.34 in (8:35 am)30.02 in (11:55 pm)
Wind Speed9.6 mph19.6 mph (2:35 am)
Wind Gust24.2 mph (12:55 am)
Weather ElementAverage
Visibility8.3 mi
Wind DirectionWSW (231.2 °)

Weather ElementTotal
Precipitation---
Heating Degree Days61.8 (Base 65)
Averaged from 65 records on February 1, 2013
WEATHER CONDITIONS BREAKOUT
WIND DIRECTION BREAKOUT
WEATHER BY HOUR - FEBRUARY 1, 2013
[ °C ]   °F
Local TimeTemperatureDewpointHumidityBarometerVisibilityWind DirectionWind SpeedGust SpeedPrecipitationEventsConditions
12:35 AM-4.0 °F-9.4 °F78 %30.28 in10.0 miWNW (300°)16.1 mph19.6 mphMostly Cloudy
12:55 AM-4.0 °F-9.4 °F78 %30.29 in10.0 miWNW (300°)18.4 mph24.2 mphMostly Cloudy
1:15 AM-4.0 °F-9.4 °F78 %30.29 in10.0 miWNW (300°)18.4 mph23.0 mphClear
1:35 AM-4.0 °F-9.4 °F78 %30.29 in10.0 miWNW (290°)12.7 mphScattered Clouds
1:55 AM-4.0 °F-11.2 °F71 %30.30 in10.0 miWNW (300°)16.1 mph20.7 mphScattered Clouds
2:15 AM-4.0 °F-11.2 °F71 %30.31 in10.0 miWNW (290°)15.0 mphClear
2:35 AM-4.0 °F-13.0 °F65 %30.30 in10.0 miWNW (300°)19.6 mphClear
3:15 AM-5.8 °F-13.0 °F71 %30.30 in10.0 miNW (310°)10.4 mphClear
3:35 AM-5.8 °F-13.0 °F71 %30.31 in10.0 miWNW (290°)11.5 mphClear
3:55 AM-5.8 °F-13.0 °F71 %30.31 in10.0 miWNW (300°)9.2 mphClear
4:15 AM-5.8 °F-13.0 °F71 %30.30 in10.0 miNW (310°)8.1 mphClear
4:35 AM-5.8 °F-13.0 °F71 %30.31 in10.0 miWest (280°)8.1 mphClear
4:55 AM-7.6 °F-13.0 °F77 %30.32 in10.0 miWest (270°)9.2 mphClear
5:15 AM-7.6 °F-13.0 °F77 %30.32 in10.0 miWest (280°)10.4 mphClear
5:35 AM-5.8 °F-13.0 °F71 %30.32 in10.0 miWest (280°)9.2 mphClear
5:55 AM-5.8 °F-13.0 °F71 %30.33 in10.0 miWest (280°)10.4 mphClear
6:15 AM-7.6 °F-14.8 °F71 %30.33 in10.0 miWest (280°)9.2 mphClear
6:35 AM-7.6 °F-14.8 °F71 %30.32 in10.0 miWNW (290°)8.1 mphClear
6:55 AM-7.6 °F-14.8 °F71 %30.32 in10.0 miWNW (290°)6.9 mphClear
7:15 AM-7.6 °F-14.8 °F71 %30.32 in10.0 miWNW (300°)3.5 mphClear
7:35 AM-7.6 °F-13.0 °F77 %30.33 in10.0 miWest (270°)4.6 mphClear
8:15 AM-7.6 °F-14.8 °F71 %30.33 in10.0 miWest (260°)8.1 mphClear
8:35 AM-5.8 °F-13.0 °F71 %30.34 in7.0 miWest (260°)6.9 mphClear
8:55 AM-4.0 °F-13.0 °F65 %30.34 in10.0 miWest (270°)9.2 mphClear
9:15 AM-4.0 °F-13.0 °F65 %30.34 in10.0 miWNW (290°)8.1 mphClear
9:35 AM-4.0 °F-13.0 °F65 %30.34 in10.0 miWest (270°)8.1 mphClear
9:55 AM-2.2 °F-13.0 °F60 %30.34 in10.0 miWest (270°)8.1 mphClear
10:15 AM-2.2 °F-11.2 °F66 %30.34 in10.0 miWest (270°)6.9 mphClear
10:35 AM-0.4 °F-11.2 °F60 %30.33 in10.0 miWSW (250°)3.5 mphClear
11:15 AM1.4 °F-9.4 °F61 %30.33 in10.0 miWSW (250°)4.6 mphClear
11:35 AM3.2 °F-9.4 °F56 %30.32 in10.0 miWSW (250°)3.5 mphClear
12:15 PM3.2 °F-7.6 °F61 %30.31 in10.0 miWSW (240°)5.8 mphClear
12:35 PM5.0 °F-7.6 °F56 %30.30 in7.0 miSSW (210°)8.1 mphClear
12:55 PM5.0 °F-5.8 °F61 %30.28 in10.0 miSSW (210°)5.8 mphClear
1:15 PM5.0 °F-7.6 °F56 %30.26 in10.0 miSSW (200°)5.8 mphClear
1:35 PM5.0 °F-5.8 °F61 %30.25 in10.0 miSSW (210°)6.9 mphClear
1:55 PM3.2 °F-5.8 °F66 %30.25 in10.0 miSW (220°)8.1 mphClear
2:15 PM5.0 °F-5.8 °F61 %30.25 in10.0 miSW (220°)10.4 mphMostly Cloudy
2:35 PM5.0 °F-4.0 °F66 %30.24 in10.0 miSSW (210°)10.4 mphOvercast
3:15 PM5.0 °F-4.0 °F66 %30.22 in10.0 miSSW (200°)9.2 mphClear
3:35 PM6.8 °F-4.0 °F61 %30.21 in10.0 miSouth (190°)10.4 mphClear
3:55 PM5.0 °F-4.0 °F66 %30.20 in10.0 miSouth (190°)9.2 mphScattered Clouds
4:15 PM5.0 °F-4.0 °F66 %30.19 in10.0 miSouth (190°)10.4 mphMostly Cloudy
4:35 PM6.8 °F-2.2 °F67 %30.18 in10.0 miSouth (180°)10.4 mphOvercast
5:15 PM6.8 °F-0.4 °F72 %30.16 in10.0 miSouth (180°)12.7 mphOvercast
5:35 PM6.8 °F-0.4 °F72 %30.14 in10.0 miSouth (180°)12.7 mphOvercast
5:55 PM6.8 °F-0.4 °F72 %30.14 in7.0 miSouth (170°)12.7 mphOvercast
6:15 PM8.6 °F1.4 °F73 %30.14 in4.0 miSouth (180°)12.7 mphSnowLight Snow
6:35 PM8.6 °F1.4 °F73 %30.14 in3.0 miSouth (180°)11.5 mphSnowLight Snow
6:55 PM8.6 °F3.2 °F79 %30.13 in2.5 miSouth (170°)9.2 mphSnowLight Snow
7:15 PM8.6 °F3.2 °F79 %30.11 in5.0 miSouth (170°)11.5 mphSnowLight Snow
7:35 PM8.6 °F3.2 °F79 %30.11 in7.0 miSouth (170°)11.5 mphOvercast
7:55 PM8.6 °F5.0 °F85 %30.10 in5.0 miSouth (170°)10.4 mphSnowLight Snow
8:15 PM10.4 °F5.0 °F79 %30.10 in4.0 miSouth (180°)9.2 mphSnowLight Snow
8:35 PM10.4 °F5.0 °F79 %30.10 in2.5 miSouth (170°)8.1 mphSnowLight Snow
8:55 PM10.4 °F6.8 °F85 %30.09 in2.5 miSouth (170°)8.1 mphSnowLight Snow
9:15 PM10.4 °F6.8 °F85 %30.09 in3.0 miSouth (170°)9.2 mphSnowLight Snow
9:35 PM12.2 °F8.6 °F85 %30.07 in5.0 miSouth (170°)9.2 mphSnowLight Snow
9:55 PM12.2 °F8.6 °F85 %30.07 in7.0 miSouth (170°)9.2 mphSnowLight Snow
10:15 PM12.2 °F8.6 °F85 %30.07 in2.0 miSSE (160°)8.1 mphSnowLight Snow
10:35 PM12.2 °F8.6 °F85 %30.07 in1.5 miSouth (180°)9.2 mphSnowLight Snow
10:55 PM14.0 °F10.4 °F86 %30.05 in2.0 miSouth (170°)9.2 mphSnowLight Snow
11:15 PM14.0 °F10.4 °F86 %30.05 in5.0 miSSE (160°)9.2 mphOvercast
11:35 PM14.0 °F10.4 °F86 %30.04 in7.0 miSouth (170°)9.2 mphOvercast
11:55 PM14.0 °F10.4 °F86 %30.02 in10.0 miSouth (170°)9.2 mphOvercast
Hourly data recorded from KIIB, located miles away from Independence, Iowa







STORIES FROM OUR PARTNERS